• en France
  • Liste des pays
  • À 7 jours
  • Température de l'eau
  • Carte satellitaire
  • Carte météo
  • Widgets météo
  • user-avatar
    Se connecter

    Météo par heure à Madingou

    Ce jour, 18 Août, Samedi

    Heure Température Précipitation Vent Pression Humidité
    00:00 +26°C° 0 mm 2 m/s 746 mmHg 76%
    01:00 +25°C° 0 mm 2 m/s 746 mmHg 80%
    02:00 +25°C° 0 mm 2 m/s 746 mmHg 81%
    03:00 +25°C° 0 mm 2 m/s 745 mmHg 82%
    04:00 +25°C° 0 mm 2 m/s 745 mmHg 83%
    05:00 +25°C° 0 mm 2 m/s 745 mmHg 82%
    06:00 +25°C° 0 mm 2 m/s 746 mmHg 81%
    07:00 +25°C° 0 mm 2 m/s 746 mmHg 80%
    08:00 +26°C° 0 mm 2 m/s 746 mmHg 76%
    09:00 +27°C° 0 mm 2 m/s 746 mmHg 71%
    10:00 +27°C° 0 mm 2 m/s 747 mmHg 67%
    11:00 +30°C° 0 mm 2 m/s 746 mmHg 60%
    12:00 +32°C° 0 mm 2 m/s 746 mmHg 52%
    13:00 +35°C° 0 mm 2 m/s 745 mmHg 45%
    14:00 +35°C° 0 mm 2 m/s 744 mmHg 43%
    15:00 +36°C° 0 mm 2 m/s 744 mmHg 41%
    16:00 +36°C° 0 mm 2 m/s 743 mmHg 39%
    17:00 +35°C° 0 mm 3 m/s 743 mmHg 44%
    18:00 +34°C° 0 mm 3 m/s 744 mmHg 48%
    19:00 +31°C° 0 mm 3 m/s 744 mmHg 53%
    20:00 +30°C° 0 mm 3 m/s 745 mmHg 58%
    21:00 +29°C° 0 mm 3 m/s 745 mmHg 63%
    22:00 +28°C° 0 mm 3 m/s 746 mmHg 68%
    23:00 +27°C° 0 mm 3 m/s 746 mmHg 71%

    Demain, 19 Août, Dimanche

    Heure Température Précipitation Vent Pression Humidité
    00:00 +26°C° 0 mm 3 m/s 746 mmHg 73%
    01:00 +26°C° 0 mm 3 m/s 746 mmHg 76%
    02:00 +25°C° 0 mm 3 m/s 746 mmHg 77%
    03:00 +25°C° 0 mm 3 m/s 746 mmHg 78%
    04:00 +25°C° 0 mm 3 m/s 746 mmHg 79%
    05:00 +25°C° 0,1 mm 2 m/s 746 mmHg 79%
    06:00 +25°C° 0,1 mm 2 m/s 746 mmHg 79%
    07:00 +25°C° 0,1 mm 2 m/s 747 mmHg 78%
    08:00 +25°C° 0 mm 2 m/s 747 mmHg 76%
    09:00 +26°C° 0 mm 2 m/s 748 mmHg 74%
    10:00 +26°C° 0 mm 2 m/s 748 mmHg 72%
    11:00 +28°C° 0 mm 2 m/s 748 mmHg 66%
    12:00 +29°C° 0 mm 2 m/s 747 mmHg 60%
    13:00 +31°C° 0 mm 2 m/s 747 mmHg 55%
    14:00 +31°C° 0 mm 2 m/s 746 mmHg 54%
    15:00 +31°C° 0 mm 3 m/s 745 mmHg 54%
    16:00 +31°C° 0 mm 3 m/s 745 mmHg 54%
    17:00 +30°C° 0 mm 3 m/s 745 mmHg 56%
    18:00 +29°C° 0 mm 3 m/s 745 mmHg 59%
    19:00 +29°C° 0 mm 3 m/s 746 mmHg 62%
    20:00 +28°C° 0 mm 3 m/s 747 mmHg 65%
    21:00 +27°C° 0 mm 3 m/s 747 mmHg 68%
    22:00 +27°C° 0 mm 3 m/s 748 mmHg 71%
    23:00 +26°C° 0 mm 3 m/s 748 mmHg 74%

    Après-demain, 20 Août, Lundi

    Heure Température Précipitation Vent Pression Humidité
    00:00 +25°C° 0 mm 3 m/s 748 mmHg 77%
    01:00 +25°C° 0 mm 3 m/s 748 mmHg 80%
    02:00 +24°C° 0 mm 3 m/s 747 mmHg 81%
    03:00 +24°C° 0 mm 2 m/s 747 mmHg 82%
    04:00 +24°C° 0 mm 2 m/s 747 mmHg 83%
    05:00 +24°C° 0 mm 2 m/s 747 mmHg 82%
    06:00 +24°C° 0 mm 2 m/s 747 mmHg 81%
    07:00 +24°C° 0 mm 2 m/s 748 mmHg 81%
    08:00 +25°C° 0 mm 2 m/s 748 mmHg 77%
    09:00 +26°C° 0 mm 2 m/s 748 mmHg 73%
    10:00 +27°C° 0 mm 2 m/s 749 mmHg 69%
    11:00 +29°C° 0 mm 2 m/s 748 mmHg 62%
    12:00 +30°C° 0 mm 2 m/s 747 mmHg 54%
    13:00 +32°C° 0 mm 2 m/s 747 mmHg 47%
    14:00 +34°C° 0 mm 3 m/s 746 mmHg 45%
    15:00 +34°C° 0 mm 3 m/s 745 mmHg 43%
    16:00 +35°C° 0 mm 3 m/s 744 mmHg 41%
    17:00 +34°C° 0 mm 3 m/s 745 mmHg 46%
    18:00 +31°C° 0 mm 3 m/s 745 mmHg 50%
    19:00 +30°C° 0 mm 3 m/s 745 mmHg 54%
    20:00 +29°C° 0 mm 3 m/s 746 mmHg 58%
    21:00 +28°C° 0 mm 3 m/s 747 mmHg 62%
    22:00 +27°C° 0 mm 3 m/s 748 mmHg 66%
    23:00 +27°C° 0 mm 3 m/s 747 mmHg 69%

    21 Août, Mardi

    Heure Température Précipitation Vent Pression Humidité
    00:00 +26°C° 0 mm 3 m/s 747 mmHg 71%
    01:00 +25°C° 0 mm 3 m/s 747 mmHg 74%
    02:00 +25°C° 0 mm 3 m/s 747 mmHg 76%
    03:00 +25°C° 0 mm 2 m/s 747 mmHg 78%
    04:00 +24°C° 0 mm 2 m/s 747 mmHg 79%
    05:00 +24°C° 0 mm 2 m/s 747 mmHg 80%
    06:00 +24°C° 0 mm 2 m/s 747 mmHg 80%
    07:00 +24°C° 0 mm 2 m/s 748 mmHg 80%
    08:00 +26°C° 0 mm 2 m/s 748 mmHg 71%
    09:00 +28°C° 0 mm 2 m/s 748 mmHg 63%
    10:00 +30°C° 0 mm 2 m/s 748 mmHg 54%
    11:00 +31°C° 0 mm 3 m/s 748 mmHg 48%
    12:00 +34°C° 0 mm 3 m/s 747 mmHg 42%
    13:00 +36°C° 0 mm 3 m/s 746 mmHg 36%
    14:00 +36°C° 0 mm 3 m/s 745 mmHg 36%
    15:00 +36°C° 0 mm 3 m/s 745 mmHg 36%
    16:00 +36°C° 0 mm 3 m/s 744 mmHg 35%
    17:00 +35°C° 0 mm 3 m/s 745 mmHg 40%
    18:00 +33°C° 0 mm 3 m/s 745 mmHg 44%
    19:00 +31°C° 0 mm 3 m/s 745 mmHg 48%
    20:00 +30°C° 0 mm 3 m/s 746 mmHg 52%
    21:00 +29°C° 0 mm 3 m/s 747 mmHg 57%
    22:00 +28°C° 0 mm 3 m/s 747 mmHg 61%
    23:00 +27°C° 0 mm 2 m/s 747 mmHg 64%

    22 Août, Mercredi

    Heure Température Précipitation Vent Pression Humidité
    00:00 +26°C° 0 mm 2 m/s 747 mmHg 66%
    01:00 +26°C° 0 mm 2 m/s 747 mmHg 69%
    02:00 +25°C° 0 mm 2 m/s 747 mmHg 72%
    03:00 +24°C° 0 mm 2 m/s 746 mmHg 74%
    04:00 +24°C° 0 mm 2 m/s 746 mmHg 77%
    05:00 +24°C° 0 mm 2 m/s 747 mmHg 78%
    06:00 +24°C° 0 mm 2 m/s 747 mmHg 78%
    07:00 +23°C° 0 mm 2 m/s 748 mmHg 79%
    08:00 +25°C° 0 mm 2 m/s 748 mmHg 72%
    09:00 +27°C° 0 mm 3 m/s 748 mmHg 65%
    10:00 +28°C° 0 mm 3 m/s 748 mmHg 58%
    11:00 +30°C° 0 mm 3 m/s 748 mmHg 51%
    12:00 +33°C° 0 mm 3 m/s 747 mmHg 45%
    13:00 +34°C° 0 mm 3 m/s 746 mmHg 39%
    14:00 +35°C° 0 mm 4 m/s 746 mmHg 38%
    15:00 +35°C° 0 mm 4 m/s 745 mmHg 38%
    16:00 +35°C° 0 mm 4 m/s 744 mmHg 37%
    17:00 +33°C° 0 mm 4 m/s 745 mmHg 42%
    18:00 +31°C° 0 mm 3 m/s 746 mmHg 47%
    19:00 +29°C° 0 mm 3 m/s 746 mmHg 52%
    20:00 +28°C° 0 mm 3 m/s 747 mmHg 56%
    21:00 +27°C° 0 mm 3 m/s 747 mmHg 61%
    22:00 +26°C° 0 mm 2 m/s 748 mmHg 66%
    23:00 +25°C° 0 mm 2 m/s 747 mmHg 68%

    23 Août, Jeudi

    Heure Température Précipitation Vent Pression Humidité
    00:00 +25°C° 0 mm 2 m/s 747 mmHg 71%
    01:00 +24°C° 0 mm 2 m/s 747 mmHg 73%
    02:00 +24°C° 0 mm 2 m/s 746 mmHg 75%
    03:00 +23°C° 0 mm 2 m/s 746 mmHg 77%
    04:00 +23°C° 0 mm 2 m/s 746 mmHg 79%
    05:00 +23°C° 0 mm 2 m/s 746 mmHg 79%
    06:00 +23°C° 0 mm 2 m/s 747 mmHg 80%
    07:00 +23°C° 0 mm 2 m/s 747 mmHg 80%
    08:00 +24°C° 0 mm 2 m/s 747 mmHg 72%
    09:00 +26°C° 0 mm 2 m/s 748 mmHg 64%
    10:00 +28°C° 0 mm 2 m/s 748 mmHg 56%
    11:00 +30°C° 0 mm 2 m/s 747 mmHg 47%
    12:00 +32°C° 0 mm 2 m/s 746 mmHg 39%
    13:00 +35°C° 0 mm 2 m/s 745 mmHg 31%
    14:00 +36°C° 0 mm 3 m/s 744 mmHg 29%
    15:00 +36°C° 0 mm 3 m/s 744 mmHg 28%
    16:00 +37°C° 0 mm 3 m/s 743 mmHg 26%
    17:00 +35°C° 0 mm 3 m/s 744 mmHg 29%
    18:00 +34°C° 0 mm 3 m/s 744 mmHg 33%
    19:00 +32°C° 0 mm 2 m/s 745 mmHg 36%
    20:00 +30°C° 0 mm 2 m/s 745 mmHg 41%
    21:00 +29°C° 0 mm 2 m/s 746 mmHg 46%
    22:00 +28°C° 0 mm 2 m/s 746 mmHg 50%
    23:00 +27°C° 0 mm 2 m/s 746 mmHg 55%
    Voir plus